This demonstration page uses our WeatherBlox Daily Observations layout. Learn more.

Hourly Observations for October 3, 2016

Temp ( °F °C ) Dew Point ( °F °C ) Humidity (%) Winds ( mph kmh ) Pressure ( in mb ) Visibility ( mi km ) Precip ( " mm )
12:15 am 00:15 Partly Cloudy 62 16.5 54 12 75 75 SE 8 13 29.94 1014 10 16.09344 0 0
12:35 am 00:35 Clear 61 16 53 11.9 77 77 SSE 8 13 29.94 1014 10 16.09344 0 0
12:55 am 00:55 Clear 60 15.7 54 12 79 79 SE 8 13 29.91 1013 10 16.09344 0 0
1:15 am 01:15 Clear 60 15.4 54 12 80 80 SE 8 13 29.94 1014 10 16.09344 0 0
1:35 am 01:35 Clear 59 15.1 54 12 82 82 SE 8 13 29.94 1014 10 16.09344 0 0
1:55 am 01:55 Partly Cloudy 59 15 54 12.1 83 83 SE 8 13 29.94 1014 10 16.09344 0 0
2:15 am 02:15 Partly Cloudy 59 15 54 12 82 82 SE 9 15 29.94 1014 10 16.09344 0 0
2:35 am 02:35 Clear 58 14.5 54 12 85 85 SE 9 15 29.94 1014 10 16.09344 0 0
2:55 am 02:55 Clear 58 14.2 54 12 87 87 SE 8 13 29.94 1014 10 16.09344 0 0
3:15 am 03:15 Clear 57 14 54 12 88 88 SE 8 13 29.91 1013 10 16.09344 0 0
3:35 am 03:35 Clear 57 13.7 53 11.8 88 88 SE 8 13 29.91 1013 10 16.09344 0 0
3:55 am 03:55 Clear 57 13.9 53 11.8 87 87 SE 8 13 29.91 1013 10 16.09344 0 0
4:15 am 04:15 Clear 59 14.9 54 12.1 83 83 SE 10 17 29.91 1013 10 16.09344 0 0
4:35 am 04:35 Clear 58 14.7 54 12 84 84 SE 9 15 29.91 1013 10 16.09344 0 0
4:55 am 04:55 Clear 58 14.3 53 11.9 86 86 SE 9 15 29.88 1012 10 16.09344 0 0
5:15 am 05:15 Partly Cloudy 58 14.2 53 11.9 86 86 SE 9 15 29.88 1012 10 16.09344 0 0
5:35 am 05:35 Mostly Cloudy 57 14.1 54 12 87 87 SE 9 15 29.88 1012 10 16.09344 0 0
5:55 am 05:55 Partly Cloudy 57 14.1 54 12 87 87 SE 10 17 29.88 1012 10 16.09344 0 0
6:15 am 06:15 Partly Cloudy 57 13.8 53 11.8 88 88 SE 12 19 29.88 1012 10 16.09344 0 0
6:35 am 06:35 Partly Cloudy 57 13.7 53 11.8 88 88 SE 12 19 29.88 1012 10 16.09344 0 0
6:55 am 06:55 Partly Cloudy 57 13.7 53 11.8 88 88 SE 9 15 29.88 1012 10 16.09344 0 0
7:15 am 07:15 Partly Cloudy 56 13.6 53 11.9 90 90 SE 9 15 29.85 1011 10 16.09344 0 0
7:35 am 07:35 Clear 56 13.6 53 11.8 89 89 SE 12 19 29.85 1011 10 16.09344 0 0
7:55 am 07:55 Sunny 57 13.9 53 11.9 88 88 SE 12 19 29.85 1011 10 16.09344 0 0
8:15 am 08:15 Sunny 57 14.1 54 12 87 87 SE 12 19 29.85 1011 10 16.09344 0 0
8:35 am 08:35 Sunny 58 14.6 54 12.1 85 85 SE 12 19 29.8 1009 10 16.09344 0 0
8:55 am 08:55 Sunny 61 15.9 54 12.2 79 79 SSE 22 35 29.8 1009 10 16.09344 0 0
9:15 am 09:15 Sunny 64 17.5 53 11.7 69 69 SSE 20 31 29.8 1009 10 16.09344 0 0
9:35 am 09:35 Sunny with Light Rain 62 16.9 54 12.1 74 74 SSE 16 26 29.8 1009 10 16.09344 0 0
9:55 am 09:55 Partly Cloudy 62 16.9 54 12 73 73 SSE 14 22 29.77 1008 10 16.09344 0 0
10:15 am 10:15 Partly Cloudy 63 17 54 12.3 74 74 SSE 17 28 29.77 1008 10 16.09344 0 0
10:35 am 10:35 Sunny 65 18.1 54 12.4 70 70 SSE 21 33 29.74 1007 10 16.09344 0 0
10:55 am 10:55 Sunny 65 18.6 55 12.5 68 68 SSE 24 39 29.71 1006 10 16.09344 0 0
11:15 am 11:15 Partly Cloudy 65 18.3 55 12.5 69 69 SSE 23 37 29.71 1006 10 16.09344 0 0
11:35 am 11:35 Sunny 65 18.5 55 12.7 69 69 SE 21 33 29.71 1006 10 16.09344 0 0
11:55 am 11:55 Partly Cloudy 68 20.1 55 12.9 63 63 SSE 23 37 29.71 1006 10 16.09344 0 0
12:15 pm 12:15 Cloudy 71 21.4 55 12.8 58 58 SE 23 37 29.68 1005 10 16.09344 0 0
12:35 pm 12:35 Partly Cloudy 74 23.1 54 12.1 50 50 SSE 26 43 29.68 1005 10 16.09344 0 0
12:55 pm 12:55 Sunny 72 22.3 54 12 52 52 SSE 29 46 29.68 1005 10 16.09344 0 0
1:15 pm 13:15 Partly Cloudy 74 23.4 54 12.1 49 49 SE 31 50 29.65 1004 10 16.09344 0 0
1:35 pm 13:35 Partly Cloudy 74 23.1 54 12 50 50 SSE 25 41 29.65 1004 10 16.09344 0 0
1:55 pm 13:55 Partly Cloudy 74 23.4 55 12.6 51 51 SE 30 48 29.62 1003 10 16.09344 0 0
2:15 pm 14:15 Sunny 75 23.7 55 12.5 50 50 SE 32 52 29.56 1001 10 16.09344 0 0
2:35 pm 14:35 Sunny 75 23.7 55 12.7 50 50 SE 32 52 29.56 1001 10 16.09344 0 0
2:55 pm 14:55 Sunny 76 24.3 55 12.5 48 48 SE 35 56 29.53 1000 10 16.09344 0 0
3:15 pm 15:15 Sunny 78 25.5 54 12 43 43 SSE 30 48 29.53 1000 10 16.09344 0 0
3:35 pm 15:35 Sunny 78 25.6 53 11.6 42 42 SSE 31 50 29.53 1000 10 16.09344 0 0
3:55 pm 15:55 Sunny 78 25.4 53 11.5 42 42 SSE 25 41 29.53 1000 10 16.09344 0 0
4:15 pm 16:15 Sunny 78 25.5 52 11.3 41 41 SSE 32 52 29.53 1000 10 16.09344 0 0
4:35 pm 16:35 Sunny 77 25.2 52 11 41 41 SSE 31 50 29.5 999 10 16.09344 0 0
4:55 pm 16:55 Sunny 76 24.7 52 11.1 43 43 SE 26 43 29.5 999 10 16.09344 0 0
5:35 pm 17:35 Sunny 77 25.1 50 10.2 39 39 SSE 33 54 29.47 998 10 16.09344 0 0
5:55 pm 17:55 Sunny 77 24.9 50 10 39 39 SSE 31 50 29.47 998 10 16.09344 0 0
6:15 pm 18:15 Sunny 76 24.5 49 9.5 39 39 SSE 31 50 29.47 998 10 16.09344 0 0
6:35 pm 18:35 Sunny 76 24.2 49 9.2 39 39 SSE 30 48 29.47 998 10 16.09344 0 0
6:55 pm 18:55 Mostly Cloudy 75 24 48 9 39 39 SSE 23 37 29.47 998 10 16.09344 0 0
7:15 pm 19:15 Partly Cloudy 74 23.5 49 9.4 41 41 SSE 29 46 29.47 998 10 16.09344 0 0
7:35 pm 19:35 Clear 74 23.1 49 9.5 42 42 SSE 26 43 29.47 998 10 16.09344 0 0
7:55 pm 19:55 Clear 73 22.8 50 9.9 44 44 SSE 23 37 29.47 998 10 16.09344 0 0
8:15 pm 20:15 Clear 72 22.3 50 10.1 46 46 SSE 26 43 29.5 999 10 16.09344 0 0
8:35 pm 20:35 Clear 72 22.2 50 10.2 47 47 SSE 26 43 29.5 999 10 16.09344 0 0
8:55 pm 20:55 Clear 71 21.8 50 10.2 48 48 SSE 25 41 29.5 999 10 16.09344 0 0
9:15 pm 21:15 Clear 71 21.5 50 10.2 49 49 SSE 25 41 29.5 999 10 16.09344 0 0
9:35 pm 21:35 Clear 70 21.2 50 10.2 50 50 SSE 24 39 29.47 998 10 16.09344 0 0
9:55 pm 21:55 Clear 70 21 50 10 50 50 SSE 26 43 29.47 998 10 16.09344 0 0
10:15 pm 22:15 Clear 70 21 50 10 50 50 SSE 28 44 29.47 998 10 16.09344 0 0
10:35 pm 22:35 Clear 69 20.8 50 10 50 50 SSE 30 48 29.47 998 10 16.09344 0 0
10:55 pm 22:55 Clear 70 20.9 50 10.1 50 50 SSE 28 44 29.47 998 10 16.09344 0 0
11:15 pm 23:15 Clear 69 20.8 50 10.2 51 51 SSE 30 48 29.47 998 10 16.09344 0 0
11:35 pm 23:35 Clear 69 20.7 51 10.5 52 52 SSE 31 50 29.47 998 10 16.09344 0 0
11:55 pm 23:55 Clear 69 20.7 51 10.7 53 53 S 28 44 29.47 998 10 16.09344 0 0

Powered by AerisWeather